Location: Bad Dürkheim
(49.4618°N, 8.1724°E)
Time: 18:27:04
(UTC+00:00)

Cosmos 1802 Rocket - Pass Details

Date: 14 June 2025
Orbit: 954 x 1010 km, 82.9° (Epoch: 12 July)

Event Time Altitude Azimuth Distance (km) Brightness Sun altitude
Rises 20:38:49 0° 352° (N) 3,756 8.2 -8.1°
Reaches altitude 10° 20:41:25 10° 356° (N) 2,802 7.4 -8.4°
Maximum altitude 20:47:48 63° 77° (ENE) 1,123 4.2 -9.0°
Enters shadow 20:53:56 11° 158° (SSE) 2,701 5.7 -9.6°
